Погода в Тынде

Погода в Тынде : погода сейчас, прогноз погоды и архив. Всё, что Вы хотите узнать о погоде в Тынде!

Хотите узнать прогноз погоды в Тынде? Тогда Вам сюда: Погода в Тынде

Поиск расширенной информации на нашем сайте:

Другие новости

Новости СМИ2

Главная страница сайта

Новости сайта

03.07.2017

Напоминаем, что на нашем специализированном сайте Метеоцентр.Азия вы можете получить высокодетализированные автоматические прогнозы погоды по пунктам России, СНГ и мира в авиационном формате (включающие направление и скорость ветра, видимость, явления погоды, количество и форму облачности, нижнюю и верхнюю границу облачности).


Погода в Тынде - сегодня

Время (UTC), дата Ветер
(°,м/с) 
Видим.   Явления Облачность Т
(°С)
Тd
(°С)
f(%) Тe
(°С)
Pmin
(гПа)
dP
(гПа)
Po
(мм)
O2
(г/м3)
Тmin Tmax R s Состояние
почвы
00 19.11.17 260 (З) 20000 м  {снег}  10/0 верхняя 
[Ci fib]
-26.6 -29.9 74 -30  1025.7  -0.5  715  321  -30.2    0.0  17  равномерный
сухой снег
100% 
03 19.11.17 230 (ЮЗ) 20000 м    10/0 верхняя 
[Ci]
-20.3 -26.6 57 -23  1023.3  -0.5  715  313           
06 19.11.17 320 (СЗ) 20000 м    9/0 верхняя 
[Ci sp]
-18.2 -27.7 43 -21  1021.8  -0.8  714  310           
09 19.11.17 260 (З) 20000 м    8/0 средняя, верхняя 
[Ac trans|Ci sp]
-21 -26.6 61 -25  1023  0.4  715  314           
12 19.11.17 280 (З) 20000 м    3/0 средняя 
[Ac trans]
-22 -26.1 69 -25  1023.2  0.1  715  315    -17.8       
15 19.11.17 тихо ()   20000 м    ясно 
-27.4 -31 71 -27  1024.1  -0.6  714  322           
18 19.11.17 260 (З) 20000 м    ясно 
-23.5 -27.7 68 -28  1022  -0.9  713  316           
21 19.11.17 210 (ЮЗ) 20000 м    ясно 
-30.6 -34.6 68 -31  1022.9  -1.2  713  325           
00 20.11.17 230 (ЮЗ) 20000 м    ясно 
-30.4 -33.9 71 -34  1021.6  -1.1  712  325  -32.6      17  равномерный
сухой снег
100% 
03 20.11.17 240 (ЮЗ) 20000 м    8/0 верхняя 
[Ci fib]
-20.6 -27 57 -23  1016.1  -2.4  710  311           
06 20.11.17 230 (ЮЗ) 20000 м    8/0 верхняя 
[Ci fib]
-17.3 -26.4 45 -20  1012.8  -2.2  708  306           
09 20.11.17 тихо ()   20000 м    10/0 средняя, верхняя 
[Ac As|Ci fib]
-20.1 -25.9 60 -20  1012.6  -0.9  707  309           
12 20.11.17 270 (З) 20000 м    3/0 средняя 
[Ac trans]
-21.7 -27.2 61 -25  1012.3  -0.7  707  311    -16.8       
15 20.11.17 250 (З) 20000 м    ясно 
-24.9 -28.9 69 -28  1012.9  -0.4  707  315           
18 20.11.17 250 (З) 20000 м    ясно 
-27.2 -30.6 73 -32  1013.7  0.2  707  318           
21 20.11.17 270 (З) 20000 м    ясно 
-27.8 -31.3 72 -31  1014.1  0.2  707  319           
00 21.11.17 250 (З) 20000 м    ?/?  
[Cs]
-28.3 -31.8 72 -32  1014.9  0.5  707  320  -29      17  равномерный
сухой снег
100% 
03 21.11.17 120 (ЮВ) 20000 м  {снег}  10/0 средняя, верхняя 
[Ac trans|Cc]
-23.9 -28.5 66 -24  1014.7  1.1  708  314           
06 21.11.17 тихо ()   20000 м  в посл. час снег  10/0 средняя, верхняя 
[Ac As|Ci fib]
-20 -25.4 62 -20  1013.9  0.3  708  310           
09 21.11.17 тихо ()   20000 м    10/0 верхняя 
[Ci]
-21.9 -26.7 65 -22  1016.2  1.6  710  313           
12 21.11.17 260 (З) 20000 м    9/0 верхняя 
[Ci fib]
-24.4 -27.1 78 -28  1018  710  316    -19.8  0.2     
15 21.11.17 290 (З) 20000 м    6/0 верхняя 
[Ci fib]
-26.3 -29.2 76 -27  1019.1  0.5  711  319           
18 21.11.17 250 (З) 20000 м    4/0 верхняя 
[Cs]
-29.2 -32.5 73 -35  1019.8  -0.2  711  322           
21 21.11.17 250 (З) 20000 м    ясно 
-30.2 -33.5 73 -34  1019.1  -0.9  710  323           
00 22.11.17 250 (З) 20000 м    10/0 средняя, верхняя 
[Ac As|Ci fib]
-30.2 -33.6 72 -36  1019  0.1  710  323  -30.7      17  равномерный
сухой снег
100% 
Время (UTC), дата Ветер
(°,м/с) 
Видим.   Явления Облачность Т
(°С)
Тd
(°С)
f(%) Тe
(°С)
Pmin
(гПа)
dP
(гПа)
Po
(мм)
O2
(г/м3)
Тmin Tmax R s Состояние
почвы

Для получения пояснительной информации подведите курсор к названию столбца.

ПОГОДА в Тынде - архив

Всё, что Вы хотите узнать о погоде в Тынде - удобно и подробно!

Выберите нужную дату (начиная с 1 января 2015* года) и нажмите кнопку "Найти".
Будут отображены архивные сводки погоды по пункту Тында, начиная с указанной даты.


Отображать данные в формате CSV (для использования в таблицах Excel)


Внимание! Наш архив погоды предназначен исключительно для личного некоммерческого использования в познавательных целях. Если Вам необходимы официальные справки о состоянии погоды (для производственных, юридических, коммерческих и т.п. целей), обращайтесь в органы Росгидромета.

*Примечание: данная дата относится к архиву по метеостанциям СССР (Россия, СНГ, Балтия).
Архив по метеостанциям Зарубежной Европы и Азии (кроме Китая) хранится 10 дней, по другим регионам земного шара (Китай, Африка, Америка, Австралия, Океания) - 1 день.

Тында - район местоположения метеостанции


Название, широта, долгота, высота метеостанции:
Тында 55.2°ш. 124.7°д. 528 м над ур. моря [Российская Федерация]

Дополнительная информация

В oтличие oт бoльшинства пoгoдных сайтoв мы публикуем пoдрoбную метеoинфoрмацию в детальнoм прoфессиoнальнoм фoрмате.

Характеристики температуры и влажнoсти вoздуха измеряются на высoте 2 м в тени вдали oт зданий и деревьев.
Скoрoсть ветра измеряется на высoте 10 м (на урoвне рoста челoвека скoрoсть ветра ниже в 1.5-2 раза). Если метеoстанция нахoдится в гoрoде или в лесу, тo скoрoсть ветра занижена на 2-4 м/с пo сравнению с oткрытым местoм. Скoрoсть ветра над акватoриями крупных рек и oзёр, а также на вершинах хoлмoв на 2-5 м/с выше, чем в oбычных услoвиях.
Атмoсфернoе давление в разных тoчках местнoсти мoжет значительнo oтличаться oт давления на метеoстанции, в зависимoсти oт услoвий рельефа (при пoдъёме на 10 м давление пoнижается примернo на 1 мм рт.ст.).